FW4606 Weather Reports


time (UTC)temp
C
wind
direction
speed
KPH
gust
KPH
rain 1hr
cm
rain 24hr
cm
rain mn
cm
humidity
%
barometer
mb
20260901205225 31 136 1.6 4.8 0.00 0.00 0.00 35 1012.8
20260901204452 31 159 1.6 8.0 0.00 0.00 0.00 34 1013.0
20260901203950 31 134 3.2 8.0 0.00 0.00 0.00 34 1013.1
20260901203448 32 112 3.2 6.4 0.00 0.00 0.00 33 1013.1
20260901203220 32 273 1.6 6.4 0.00 0.00 0.00 33 1013.1
20260901202721 32 217 1.6 6.4 0.00 0.00 0.00 32 1013.1
20260901202619 32 148 1.6 6.4 0.00 0.00 0.00 32 1013.2
20260901201449 32 159 1.6 6.4 0.00 0.00 0.00 33 1013.2
20260901200945 32 174 1.6 8.0 0.00 0.00 0.00 35 1013.2
20260901200447 32 201 1.6 8.0 0.00 0.00 0.00 32 1013.2
20260901195946 32 120 1.6 8.0 0.00 0.00 0.00 35 1013.2
20260901195446 31 107 3.2 6.4 0.00 0.00 0.00 34 1013.4
20260901194950 31 212 1.6 4.8 0.00 0.00 0.00 37 1013.5
20260901194946 31 196 1.6 6.4 0.00 0.00 0.00 35 1013.4
20260901194219 31 201 1.6 6.4 0.00 0.00 0.00 38 1013.5
20260901193446 31 159 1.6 6.4 0.00 0.00 0.00 38 1013.6
20260901192940 31 221 1.6 6.4 0.00 0.00 0.00 38 1013.5
20260901192434 32 176 1.6 8.0 0.00 0.00 0.00 37 1013.5
20260901191928 32 257 1.6 8.0 0.00 0.00 0.00 38 1013.5
20260901191421 31 212 0.0 4.8 0.00 0.00 0.00 41 1013.5
20260901190923 31 42 0.0 1.6 0.00 0.00 0.00 41 1013.6
20260901190422 31 102 0.0 1.6 0.00 0.00 0.00 44 1013.7
20260901185924 30 45 0.0 1.6 0.00 0.00 0.00 39 1013.7
20260901185424 30 54 0.0 3.2 0.00 0.00 0.00 41 1013.8
20260901184923 30 194 0.0 3.2 0.00 0.00 0.00 42 1013.8
20260901184421 30 156 0.0 3.2 0.00 0.00 0.00 45 1013.7
20260901183918 30 162 0.0 3.2 0.00 0.00 0.00 43 1013.8
20260901183417 30 141 0.0 4.8 0.00 0.00 0.00 44 1013.9
20260901182917 30 136 0.0 4.8 0.00 0.00 0.00 40 1014.0
20260901182418 30 169 0.0 3.2 0.00 0.00 0.00 43 1014.0
20260901181916 30 175 1.6 6.4 0.00 0.00 0.00 40 1014.1
20260901181645 30 166 1.6 6.4 0.00 0.00 0.00 40 1014.2
20260901180913 31 193 1.6 6.4 0.00 0.00 0.00 40 1014.2
20260901180412 30 215 1.6 6.4 0.00 0.00 0.00 40 1014.3
20260901180144 30 113 1.6 6.4 0.00 0.00 0.00 44 1014.3
20260901175411 30 162 1.6 6.4 0.00 0.00 0.00 41 1014.3
20260901175142 30 256 1.6 6.4 0.00 0.00 0.00 45 1014.5
20260901174406 30 115 1.6 4.8 0.00 0.00 0.00 43 1014.6
20260901173859 30 131 0.0 4.8 0.00 0.00 0.00 44 1014.7
20260901173354 30 351 0.0 1.6 0.00 0.00 0.00 46 1014.6
20260901172847 29 24 0.0 3.2 0.00 0.00 0.00 50 1014.6
20260901172342 29 136 0.0 3.2 0.00 0.00 0.00 48 1014.6
20260901171836 29 146 1.6 4.8 0.00 0.00 0.00 47 1014.7
20260901171603 29 149 1.6 4.8 0.00 0.00 0.00 46 1014.7
20260901171326 29 138 0.0 1.6 0.00 0.00 0.00 50 1014.8
20260901170318 28 115 0.0 1.6 0.00 0.00 0.00 47 1014.8
20260901165808 28 115 0.0 1.6 0.00 0.00 0.00 56 1014.7
20260901165306 28 77 0.0 1.6 0.00 0.00 0.00 57 1014.7
20260901164756 28 205 0.0 1.6 0.00 0.00 0.00 53 1014.7
20260901164522 28 129 0.0 1.6 0.00 0.00 0.00 58 1014.7
20260901163744 27 96 0.0 1.6 0.00 0.00 0.00 57 1014.6
20260901163238 27 8 0.0 1.6 0.00 0.00 0.00 57 1014.7
20260901162732 27 179 0.0 1.6 0.00 0.00 0.00 59 1014.6
20260901162226 27 49 0.0 1.6 0.00 0.00 0.00 61 1014.6
20260901161720 26 44 0.0 1.6 0.00 0.00 0.00 62 1014.6
20260901161214 26 129 0.0 1.6 0.00 0.00 0.00 63 1014.8
20260901160708 26 134 0.0 1.6 0.00 0.00 0.00 63 1014.8
20260901160432 26 103 0.0 3.2 0.00 0.00 0.00 64 1014.8
20260901155656 26 130 0.0 3.2 0.00 0.00 0.00 69 1014.8
20260901155150 26 201 0.0 1.6 0.00 0.00 0.00 69 1014.9
20260901154644 26 128 0.0 3.2 0.00 0.00 0.00 69 1014.8
20260901154138 25 130 0.0 3.2 0.00 0.00 0.00 70 1014.8
20260901153634 25 113 0.0 1.6 0.00 0.00 0.00 69 1014.8
20260901153629 25 96 0.0 1.6 0.00 0.00 0.00 71 1014.9
20260901152620 25 93 0.0 1.6 0.00 0.00 0.00 70 1014.9
20260901152114 25 72 0.0 1.6 0.00 0.00 0.00 69 1014.9
20260901151607 25 145 0.0 1.6 0.00 0.00 0.00 69 1014.8
20260901151102 25 125 0.0 1.6 0.00 0.00 0.00 72 1014.9
20260901150556 24 47 0.0 1.6 0.00 0.00 0.00 72 1014.9
20260901150050 24 104 0.0 1.6 0.00 0.00 0.00 73 1015.0
20260901145814 23 133 0.0 1.6 0.00 0.00 0.00 78 1015.0
20260901145038 23 136 0.0 3.2 0.00 0.00 0.00 78 1014.9
20260901144532 23 135 0.0 3.2 0.00 0.00 0.00 77 1014.9
20260901144026 22 111 0.0 3.2 0.00 0.00 0.00 78 1014.9
20260901143521 22 240 0.0 4.8 0.00 0.00 0.00 81 1015.0
20260901143516 22 140 0.0 4.8 0.00 0.00 0.00 83 1014.9
20260901142509 21 108 0.0 4.8 0.00 0.00 0.00 86 1014.9
20260901142001 21 149 0.0 3.2 0.00 0.00 0.00 88 1014.9
20260901141456 21 158 0.0 1.6 0.00 0.00 0.00 89 1014.9
20260901141218 20 97 0.0 3.2 0.00 0.00 0.00 90 1014.9
20260901141053 20 174 0.0 3.2 0.00 0.00 0.00 90 1014.9
20260901135938 20 107 0.0 3.2 0.00 0.00 0.00 92 1014.9
20260901135704 20 146 0.0 3.2 0.00 0.00 0.00 93 1015.0
20260901134926 19 169 0.0 3.2 0.00 0.00 0.00 94 1015.0
20260901134420 19 191 0.0 3.2 0.00 0.00 0.00 96 1015.1
20260901133914 18 132 0.0 3.2 0.00 0.00 0.00 97 1015.1
20260901133408 18 122 0.0 3.2 0.00 0.00 0.00 98 1015.0
20260901132902 18 134 0.0 3.2 0.00 0.00 0.00 98 1014.9
20260901132626 18 150 0.0 1.6 0.00 0.00 0.00 98 1014.9
20260901131849 17 121 0.0 0.0 0.00 0.00 0.00 98 1014.8
20260901131344 17 121 0.0 1.6 0.00 0.00 0.00 98 1014.7
20260901130838 17 122 0.0 1.6 0.00 0.00 0.00 98 1014.7
20260901130332 17 121 0.0 0.0 0.00 0.00 0.00 98 1014.7
20260901125826 17 121 0.0 0.0 0.00 0.00 0.00 97 1014.7
20260901125320 16 122 0.0 0.0 0.00 0.00 0.00 97 1014.6
20260901125048 16 121 0.0 0.0 0.00 0.00 0.00 97 1014.6
20260901124813 16 121 0.0 0.0 0.00 0.00 0.00 97 1014.6
20260901123802 16 121 0.0 0.0 0.00 0.00 0.00 97 1014.5
20260901123256 16 121 0.0 0.0 0.00 0.00 0.00 97 1014.5
20260901122750 15 121 0.0 0.0 0.00 0.00 0.00 97 1014.5
20260901122244 15 121 0.0 0.0 0.00 0.00 0.00 97 1014.5
20260901121738 15 122 0.0 0.0 0.00 0.00 0.00 97 1014.5
20260901121502 15 122 0.0 0.0 0.00 0.00 0.00 97 1014.5
20260901120726 16 121 0.0 0.0 0.00 0.00 0.00 97 1014.5
20260901120451 16 121 0.0 0.0 0.00 0.00 0.00 97 1014.4
20260901115714 16 121 0.0 0.0 0.00 0.00 0.00 97 1014.4
20260901115207 15 122 0.0 0.0 0.00 0.00 0.00 97 1014.2
20260901114701 15 121 0.0 0.0 0.00 0.00 0.00 97 1014.2
20260901114156 15 122 0.0 0.0 0.00 0.00 0.00 97 1014.1
20260901113650 15 122 0.0 0.0 0.00 0.00 0.00 97 1014.1
20260901113144 15 122 0.0 0.0 0.00 0.00 0.00 97 1014.1
20260901112910 15 121 0.0 0.0 0.00 0.00 0.00 97 1014.0
20260901112404 15 122 0.0 0.0 0.00 0.00 0.00 97 1014.0
20260901111626 14 121 0.0 0.0 0.00 0.00 0.00 97 1014.0
20260901111120 14 121 0.0 0.0 0.00 0.00 0.00 96 1014.0
20260901110846 14 121 0.0 0.0 0.00 0.00 0.00 96 1013.9
20260901110339 14 122 0.0 0.0 0.00 0.00 0.00 96 1013.9
20260901105602 14 121 0.0 0.0 0.00 0.00 0.00 96 1013.9
20260901105327 14 121 0.0 0.0 0.00 0.00 0.00 95 1014.0
20260901104822 14 121 0.0 0.0 0.00 0.00 0.00 96 1014.0
20260901104044 15 122 0.0 0.0 0.00 0.00 0.00 96 1013.9
20260901103538 15 122 0.0 0.0 0.00 0.00 0.00 96 1013.8
20260901103032 15 122 0.0 0.0 0.00 0.00 0.00 96 1013.8
20260901102525 15 122 0.0 0.0 0.00 0.00 0.00 96 1013.8
20260901102020 15 121 0.0 0.0 0.00 0.00 0.00 96 1013.8
20260901101514 15 121 0.0 0.0 0.00 0.00 0.00 97 1013.7
20260901101008 14 122 0.0 1.6 0.00 0.00 0.00 95 1013.6
20260901100502 15 121 0.0 1.6 0.00 0.00 0.00 95 1013.5
20260901095956 15 121 0.0 0.0 0.00 0.00 0.00 95 1013.5
20260901095451 15 122 0.0 0.0 0.00 0.00 0.00 95 1013.5
20260901095215 15 122 0.0 0.0 0.00 0.00 0.00 95 1013.4
20260901094437 16 122 0.0 0.0 0.00 0.00 0.00 97 1013.2
20260901093931 16 122 0.0 0.0 0.00 0.00 0.00 97 1013.1
20260901093426 16 121 0.0 0.0 0.00 0.00 0.00 96 1013.1
20260901092920 15 121 0.0 0.0 0.00 0.00 0.00 96 1013.0
20260901092414 15 122 0.0 0.0 0.00 0.00 0.00 95 1013.1
20260901091907 16 121 0.0 0.0 0.00 0.00 0.00 96 1013.1
20260901090856 16 121 0.0 0.0 0.00 0.00 0.00 96 1013.1
20260901090350 17 121 0.0 0.0 0.00 0.00 0.00 97 1013.2
20260901085844 16 122 0.0 0.0 0.00 0.00 0.00 97 1013.1
20260901085338 16 121 0.0 0.0 0.00 0.00 0.00 97 1013.1
20260901084832 16 121 0.0 0.0 0.00 0.00 0.00 97 1013.2
20260901084326 16 121 0.0 0.0 0.00 0.00 0.00 97 1013.2
20260901083820 16 121 0.0 0.0 0.00 0.00 0.00 96 1013.2
20260901083314 15 121 0.0 0.0 0.00 0.00 0.00 95 1013.1
20260901083039 15 122 0.0 0.0 0.00 0.00 0.00 95 1013.1
20260901082534 16 121 0.0 0.0 0.00 0.00 0.00 95 1013.1
20260901082028 16 122 0.0 0.0 0.00 0.00 0.00 96 1013.1
20260901081520 16 121 0.0 0.0 0.00 0.00 0.00 96 1013.1
20260901080744 16 122 0.0 0.0 0.00 0.00 0.00 96 1013.1
20260901080238 16 121 0.0 0.0 0.00 0.00 0.00 96 1013.1
20260901075732 16 122 0.0 0.0 0.00 0.00 0.00 96 1013.1
20260901075456 16 122 0.0 0.0 0.00 0.00 0.00 95 1013.2
20260901074719 16 122 0.0 0.0 0.00 0.00 0.00 95 1013.2
20260901074214 16 121 0.0 0.0 0.00 0.00 0.00 96 1013.4
20260901073940 17 121 0.0 0.0 0.00 0.00 0.00 96 1013.4
20260901073433 17 121 0.0 0.0 0.00 0.00 0.00 96 1013.4
20260901072656 16 121 0.0 0.0 0.00 0.00 0.00 96 1013.4
20260901072150 16 121 0.0 0.0 0.00 0.00 0.00 95 1013.5
20260901071916 16 122 0.0 0.0 0.00 0.00 0.00 95 1013.6
20260901071138 16 121 0.0 0.0 0.00 0.00 0.00 95 1013.7
20260901070632 17 122 0.0 0.0 0.00 0.00 0.00 96 1013.8
20260901070126 17 122 0.0 0.0 0.00 0.00 0.00 96 1013.7
20260901065620 16 121 0.0 0.0 0.00 0.00 0.00 95 1013.8
20260901065114 16 122 0.0 0.0 0.00 0.00 0.00 94 1013.8
20260901064838 16 121 0.0 0.0 0.00 0.00 0.00 94 1013.8
20260901064102 16 122 0.0 0.0 0.00 0.00 0.00 94 1013.9
20260901063556 17 122 0.0 0.0 0.00 0.00 0.00 95 1014.0
20260901063050 17 122 0.0 0.0 0.00 0.00 0.00 95 1014.0
20260901062544 17 122 0.0 0.0 0.00 0.00 0.00 96 1013.9
20260901062038 17 122 0.0 0.0 0.00 0.00 0.00 95 1013.7
20260901061532 17 121 0.0 0.0 0.00 0.00 0.00 95 1013.7
20260901061026 17 121 0.0 0.0 0.00 0.00 0.00 95 1013.7
20260901060520 17 122 0.0 0.0 0.00 0.00 0.00 95 1013.8
20260901060014 17 122 0.0 0.0 0.00 0.00 0.00 95 1013.7
20260901055508 17 122 0.0 0.0 0.00 0.00 0.00 94 1013.7
20260901055001 17 122 0.0 0.0 0.00 0.00 0.00 94 1013.7
20260901054456 17 121 0.0 0.0 0.00 0.00 0.00 94 1013.7
20260901053950 17 121 0.0 0.0 0.00 0.00 0.00 94 1013.6
20260901053450 17 122 0.0 0.0 0.00 0.00 0.00 94 1013.6
20260901053217 17 122 0.0 0.0 0.00 0.00 0.00 94 1013.6
20260901052446 17 121 0.0 0.0 0.00 0.00 0.00 93 1013.6
20260901051949 17 121 0.0 0.0 0.00 0.00 0.00 93 1013.6
20260901051446 17 121 0.0 0.0 0.00 0.00 0.00 93 1013.5
20260901050944 17 122 0.0 0.0 0.00 0.00 0.00 93 1013.4
20260901050441 18 121 0.0 0.0 0.00 0.00 0.00 93 1013.5
20260901045940 18 121 0.0 0.0 0.00 0.00 0.00 93 1013.4
20260901045440 18 121 0.0 0.0 0.00 0.00 0.00 93 1013.4
20260901044939 18 122 0.0 0.0 0.00 0.00 0.00 92 1013.4
20260901044439 18 122 0.0 0.0 0.00 0.00 0.00 92 1013.1
20260901043940 18 121 0.0 0.0 0.00 0.00 0.00 92 1013.1
20260901043441 18 121 0.0 0.0 0.00 0.00 0.00 91 1013.1
20260901043209 18 121 0.0 0.0 0.00 0.00 0.00 91 1013.0
20260901042435 18 121 0.0 0.0 0.00 0.00 0.00 91 1013.0
20260901041935 19 121 0.0 0.0 0.00 0.00 0.00 90 1013.0
20260901041707 19 121 0.0 0.0 0.00 0.00 0.00 90 1012.8
20260901040936 19 121 0.0 0.0 0.00 0.00 0.00 90 1012.9
20260901040436 19 122 0.0 0.0 0.00 0.00 0.00 90 1013.0
20260901035936 19 121 0.0 0.0 0.00 0.00 0.00 90 1013.0
20260901035706 19 121 0.0 0.0 0.00 0.00 0.00 90 1012.9
20260901034937 20 121 0.0 0.0 0.00 0.00 0.00 89 1013.0
20260901034433 20 122 0.0 0.0 0.00 0.00 0.00 89 1013.0
20260901033933 20 121 0.0 0.0 0.00 0.00 0.00 89 1013.1
20260901033438 20 121 0.0 0.0 0.00 0.00 0.00 88 1013.0
20260901033432 20 121 0.0 0.0 0.00 0.00 0.00 89 1013.1
20260901032433 20 122 0.0 0.0 0.00 0.00 0.00 88 1013.0
20260901031931 20 121 0.0 0.0 0.00 0.00 0.00 89 1012.9
20260901031433 20 121 0.0 0.0 0.00 0.00 0.00 89 1012.8
20260901030933 20 122 0.0 0.0 0.00 0.00 0.00 89 1012.9
20260901030708 20 121 0.0 0.0 0.00 0.00 0.00 89 1012.8
20260901025928 20 122 0.0 0.0 0.00 0.00 0.00 87 1012.8
20260901025429 20 122 0.0 0.0 0.00 0.00 0.00 87 1012.8
20260901024929 20 122 0.0 0.0 0.00 0.00 0.00 86 1012.8
20260901024427 20 121 0.0 0.0 0.00 0.00 0.00 85 1012.8
20260901023929 21 121 0.0 0.0 0.00 0.00 0.00 84 1012.7
20260901023426 21 122 0.0 0.0 0.00 0.00 0.00 84 1012.7
20260901022926 21 121 0.0 0.0 0.00 0.00 0.00 84 1012.6
20260901022429 21 121 0.0 0.0 0.00 0.00 0.00 84 1012.5
20260901021926 21 121 0.0 0.0 0.00 0.00 0.00 82 1012.6
20260901021425 22 121 0.0 0.0 0.00 0.00 0.00 81 1012.5
20260901020921 22 121 0.0 0.0 0.00 0.00 0.00 80 1012.5
20260901020424 22 121 0.0 0.0 0.00 0.00 0.00 79 1012.5
20260901015916 22 122 0.0 0.0 0.00 0.00 0.00 79 1012.5
20260901015418 22 122 0.0 0.0 0.00 0.00 0.00 79 1012.4
20260901014911 22 121 0.0 0.0 0.00 0.00 0.00 79 1012.4
20260901014410 23 122 0.0 0.0 0.00 0.00 0.00 79 1012.3
20260901013911 23 122 0.0 0.0 0.00 0.00 0.00 78 1012.2
20260901013646 23 121 0.0 0.0 0.00 0.00 0.00 77 1012.2
20260901013407 23 121 0.0 0.0 0.00 0.00 0.00 78 1012.2
20260901012407 23 121 0.0 0.0 0.00 0.00 0.00 76 1012.1
20260901011907 23 121 0.0 0.0 0.00 0.00 0.00 76 1012.1
20260901011403 24 121 0.0 0.0 0.00 0.00 0.00 75 1012.0
20260901011135 24 121 0.0 0.0 0.00 0.00 0.00 74 1012.0
20260901010404 25 122 0.0 0.0 0.00 0.00 0.00 73 1012.0
20260901005903 25 121 0.0 0.0 0.00 0.00 0.00 72 1012.0
20260901005405 25 122 0.0 0.0 0.00 0.00 0.00 71 1012.0
20260901004902 25 121 0.0 0.0 0.00 0.00 0.00 71 1012.0
20260901004359 26 121 0.0 0.0 0.00 0.00 0.00 70 1011.9
20260901004126 26 121 0.0 0.0 0.00 0.00 0.00 67 1011.9
20260901004000 26 121 0.0 0.0 0.00 0.00 0.00 68 1011.8
20260901003119 27 121 0.0 0.0 0.00 0.00 0.00 64 1011.9
20260901002347 27 121 0.0 0.0 0.00 0.00 0.00 62 1011.8
20260901001846 27 122 0.0 0.0 0.00 0.00 0.00 61 1011.8
20260901001347 28 121 0.0 0.0 0.00 0.00 0.00 59 1011.8
20260901000843 28 121 0.0 0.0 0.00 0.00 0.00 58 1011.8
20260901000345 28 121 0.0 0.0 0.00 0.00 0.00 57 1011.8
20260831235841 28 121 0.0 0.0 0.00 0.00 0.00 54 1011.8
20260831235341 28 121 0.0 0.0 0.00 0.00 0.00 53 1011.7
20260831234839 29 121 0.0 0.0 0.00 0.00 0.00 51 1011.8
20260831234339 29 121 0.0 0.0 0.00 0.00 0.00 52 1011.7
20260831233838 30 121 0.0 0.0 0.00 0.00 0.00 51 1011.7
20260831233336 30 121 0.0 0.0 0.00 0.00 0.00 50 1011.6
20260831232833 30 121 0.0 0.0 0.00 0.00 0.00 48 1011.7
20260831232333 30 121 0.0 0.0 0.00 0.00 0.00 49 1011.7
20260831231837 30 121 0.0 0.0 0.00 0.00 0.00 47 1011.7
20260831231333 31 121 0.0 0.0 0.00 0.00 0.00 46 1011.6
20260831230832 31 122 0.0 0.0 0.00 0.00 0.00 45 1011.7
20260831230332 31 121 0.0 0.0 0.00 0.00 0.00 44 1011.6
20260831225826 31 121 0.0 0.0 0.00 0.00 0.00 44 1011.6
20260831225319 32 121 0.0 0.0 0.00 0.00 0.00 43 1011.6
20260831224814 32 121 0.0 0.0 0.00 0.00 0.00 43 1011.7
20260831224308 33 156 0.0 1.6 0.00 0.00 0.00 43 1011.5
20260831223802 33 158 0.0 1.6 0.00 0.00 0.00 44 1011.6
20260831223255 33 138 0.0 0.0 0.00 0.00 0.00 44 1011.6
20260831222751 33 135 0.0 1.6 0.00 0.00 0.00 40 1011.6
20260831222745 33 134 0.0 1.6 0.00 0.00 0.00 41 1011.4
20260831222008 33 39 0.0 1.6 0.00 0.00 0.00 43 1011.5
20260831221505 33 75 0.0 1.6 0.00 0.00 0.00 40 1011.5
20260831220726 33 351 0.0 4.8 0.00 0.00 0.00 40 1011.4
20260831220219 33 108 1.6 9.7 0.00 0.00 0.00 41 1011.3
20260831215714 33 162 1.6 9.7 0.00 0.00 0.00 39 1011.4
20260831215208 33 113 0.0 4.8 0.00 0.00 0.00 42 1011.3
20260831214702 32 134 0.0 4.8 0.00 0.00 0.00 47 1011.3
20260831214156 32 143 0.0 1.6 0.00 0.00 0.00 43 1011.3
20260831213650 33 146 0.0 1.6 0.00 0.00 0.00 43 1011.3
20260831213144 33 146 0.0 1.6 0.00 0.00 0.00 40 1011.2
20260831212638 33 181 0.0 1.6 0.00 0.00 0.00 38 1011.2
20260831212132 33 118 0.0 3.2 0.00 0.00 0.00 40 1011.2
20260831211632 33 94 0.0 3.2 0.00 0.00 0.00 43 1011.2
20260831211129 32 148 0.0 1.6 0.00 0.00 0.00 44 1011.2
20260831210628 33 113 0.0 1.6 0.00 0.00 0.00 43 1011.1
20260831210126 33 7 1.6 4.8 0.00 0.00 0.00 48 1011.1
20260831205625 32 117 1.6 6.4 0.00 0.00 0.00 46 1011.1